RH
67 61 61 58 57 60 68 66 84 50 46 39 36 39 39 38 38 35 28 24 24 30 32 28 28 30 30 30 38 41 45 48 51 58 70 76 77 81 84 92 92 92 95 96
80 65 62 60 52 56 54 49 46 45 48 36 34 31 33 33 29 26 26 24 25 29 25 25 26 28 29 32 35 38 42 43 44 56 64 70 72 76 84 91 92 94 96 97
72 53 48 58 44 45 47 49 42 47 37 31 34 30 30 30 27 26 26 26 26 29 26 26 28 29 29 29 33 38 39 38 39 44 56 64 64 69 79 88 89 95 97 96
76 48 66 36 37 34 38 33 34 36 34 32 32 29 26 24 25 27 24 24 26 26 27 27 27 30 34 34 34 38 39 37 38 43 53 61 70 72 80 85 91 92 97 98
80 61 44 27 35 33 31 27 31 36 35 32 29 31 29 23 24 29 32 32 31 29 29 30 32 32 34 37 36 37 39 39 38 48 63 72 87 87 86 89 93 98 98 100
86 80 76 34 34 36 37 47 42 38 36 36 35 42 32 28 34 36 37 36 35 34 34 35 34 34 37 42 42 42 41 45 48 62 79 88 94 97 96 93 96 99 100 100
83 81 61 39 42 36 44 33 40 38 45 48 52 47 43 44 47 45 45 44 41 40 40 39 37 38 45 43 47 47 52 65 87 96 100 98 97 100 100 100 100 100 100 100
78 89 71 37 37 33 35 40 42 48 50 58 59 62 63 60 59 55 52 50 48 48 48 43 39 42 43 49 54 64 87 100 100 100 100 98 100 100 100 100 100 100 100 100
53 44 35 43 38 41 43 48 51 58 63 63 68 67 62 61 57 54 52 50 50 52 54 53 49 46 52 57 55 82 100 100 100 100 100 100 100 100 100 100 100 100 99 99
46 37 40 42 40 44 45 53 65 67 56 53 64 66 68 64 63 63 61 62 60 61 60 60 66 60 57 60 73 99 100 100 100 100 100 100 100 100 100 100 100 100 100 99
52 41 42 43 46 46 68 72 70 55 54 61 70 74 72 76 70 67 67 69 68 73 72 66 63 82 69 66 82 99 100 100 100 100 100 100 100 100 100 100 100 100 99 98
53 41 44 45 56 75 79 67 59 62 62 60 68 70 70 73 71 69 73 74 83 93 93 90 82 77 75 71 76 90 99 100 100 100 100 100 100 100 98 99 99 98 97 98
38 49 60 71 76 75 61 62 59 60 59 65 60 62 68 80 79 78 75 80 95 96 96 96 96 96 83 80 82 94 98 98 98 100 100 100 100 100 98 100 100 100 100 100
48 64 85 73 63 68 60 60 60 61 55 53 61 64 69 77 83 90 86 95 97 97 98 100 100 99 98 96 98 100 100 96 99 99 100 100 100 100 100 98 96 98 99 99
65 78 73 72 64 58 63 64 69 64 61 61 61 68 75 87 92 93 94 98 99 100 100 100 100 100 100 100 100 100 99 99 100 100 100 98 99 99 98 97 97 96 98 99
73 69 64 57 59 63 68 68 73 70 70 71 72 76 78 81 84 91 98 99 99 99 100 100 100 100 100 100 100 99 98 95 93 93 95 97 96 96 96 96 96 95 96 97
84 71 55 58 60 66 71 75 79 80 76 76 78 81 79 80 84 88 91 94 99 100 100 100 100 100 100 100 99 95 94 92 91 89 91 92 92 94 95 95 95 95 96 99
63 54 53 74 84 84 80 76 79 77 79 82 83 88 84 86 90 93 94 94 94 94 99 100 100 100 100 100 98 93 94 90 88 90 89 92 91 93 94 91 93 92 95 95
69 69 69 78 85 87 88 85 79 78 89 84 89 88 86 86 88 89 91 93 95 94 92 96 96 97 98 99 99 95 93 92 89 88 89 92 92 90 94 93 92 93 91 91
70 68 72 78 76 86 81 72 78 82 89 88 89 88 89 87 87 86 88 92 94 97 96 93 92 93 97 99 98 94 93 94 89 91 93 91 93 94 94 92 91 90 92 92
74 68 73 83 81 88 92 92 93 93 93 96 93 92 92 90 88 87 84 82 81 87 94 96 93 89 94 99 97 98 97 96 95 93 92 94 95 93 94 94 94 93 92 92
81 88 86 90 92 90 90 91 88 94 96 97 93 94 94 88 86 82 81 80 70 81 90 90 92 95 94 98 96 99 96 96 94 93 94 94 94 94 94 94 95 96 96 95
87 87 88 92 93 90 88 92 93 93 99 99 96 94 84 78 75 76 79 59 70 77 84 90 94 96 97 100 99 100 100 98 96 95 95 96 95 95 94 93 93 93 95 95
88 90 90 89 92 94 95 86 90 90 97 97 95 92 84 81 83 64 61 74 80 86 88 91 95 95 96 98 97 98 98 97 97 97 96 95 96 96 94 92 92 92 92 93
93 90 91 94 95 91 90 88 92 90 92 86 85 78 73 66 82 78 84 86 84 85 87 84 91 94 97 97 96 97 97 97 97 98 95 95 95 95 92 91 90 91 91 91
90 92 93 94 93 93 92 91 92 90 90 90 82 83 84 80 78 78 82 86 85 83 86 89 93 96 96 96 96 96 96 93 95 94 94 94 94 92 92 90 90 89 88 88
86 92 88 89 92 91 90 89 91 91 88 88 88 85 78 84 84 84 84 86 88 90 91 91 90 91 95 96 96 96 95 95 95 93 94 94 92 92 91 91 90 90 90 91
Wind_Speed
4 5 4 5 6 7 8 9 10 21 21 20 18 18 18 17 13 12 13 15 16 15 11 10 10 10 10 11 10 9 10 12 13 13 10 9 7 7 8 8 9 9 8 7
1 4 5 9 8 8 10 14 18 20 21 15 15 10 13 12 10 13 14 15 18 12 10 14 12 11 11 11 10 9 10 11 11 12 10 8 8 7 7 8 9 8 8 8
3 4 3 10 10 9 6 5 10 12 15 14 12 15 13 13 15 16 16 16 17 16 17 16 17 14 15 14 13 12 11 11 10 11 12 10 8 8 7 8 9 9 7 9
4 2 5 4 0 4 9 10 12 13 13 11 9 10 15 18 16 16 19 19 19 17 18 18 18 17 14 14 14 13 12 12 11 11 12 11 9 9 7 6 8 9 7 7
4 5 8 4 5 3 6 15 10 9 6 10 13 15 20 16 13 17 18 18 18 19 20 20 20 18 16 15 15 12 12 12 12 11 11 9 8 7 7 6 7 8 5 5
3 4 6 2 3 6 6 9 6 8 13 17 17 15 17 19 19 21 21 19 20 22 21 20 19 18 16 15 13 13 13 12 11 9 8 10 8 7 4 7 7 5 2 4
4 4 6 8 2 3 3 3 12 12 14 17 16 14 23 22 22 21 22 24 23 21 20 21 19 18 17 16 15 14 10 9 6 5 6 7 9 5 5 5 5 4 4 3
3 4 9 5 3 3 7 8 11 13 15 18 19 21 22 24 24 23 25 24 23 19 19 19 19 16 19 16 13 10 6 7 7 6 4 4 6 6 6 5 5 4 4 3
9 6 2 4 2 6 6 8 10 14 14 17 19 21 22 23 24 22 24 21 20 19 21 19 18 17 19 16 14 9 7 9 7 6 4 5 6 6 5 4 4 5 5 5
3 3 9 8 6 6 4 10 11 11 15 17 19 21 22 21 21 20 20 20 19 21 21 20 16 16 17 14 10 7 10 8 5 6 5 5 5 5 6 4 5 5 5 6
5 8 8 7 4 6 8 10 10 14 15 16 17 20 21 18 20 19 18 17 17 18 19 19 17 12 15 15 7 8 7 6 6 4 4 3 4 4 3 3 5 6 6 7
7 8 4 6 3 7 7 9 12 14 17 17 17 19 20 18 17 19 19 19 18 18 19 18 17 16 15 10 9 9 6 4 3 3 2 2 3 2 2 3 4 5 7 8
5 5 5 6 7 2 7 10 11 13 13 14 17 18 20 19 18 20 20 19 17 16 15 12 12 11 13 12 9 8 6 4 3 3 3 3 2 2 2 4 4 4 8 10
7 3 5 6 3 4 5 8 10 11 12 12 15 17 18 17 18 17 19 17 17 14 12 9 9 9 8 8 6 5 4 3 3 2 2 2 2 2 3 3 4 4 7 9
7 9 4 2 1 4 5 7 8 10 13 15 15 17 17 19 18 17 17 16 14 11 9 8 8 8 5 2 2 2 2 2 1 2 2 3 3 4 4 5 5 6 7 9
9 6 3 1 4 5 5 7 8 11 13 14 15 17 19 18 17 15 15 14 10 10 9 8 7 7 4 1 2 1 1 2 2 2 3 3 4 4 5 5 7 7 7 8
5 4 4 5 5 4 6 6 7 9 11 12 15 16 17 18 16 15 15 15 12 9 8 7 8 5 3 2 3 2 2 2 3 3 3 3 4 5 5 5 6 6 7 8
7 4 5 5 4 4 6 5 6 8 9 12 13 13 15 16 17 17 16 16 13 11 6 7 7 6 5 4 4 4 3 4 4 4 4 4 5 5 6 6 7 8 8 8
7 7 7 7 6 6 6 6 5 6 6 8 10 12 12 13 14 16 16 15 13 12 11 11 11 9 7 5 4 4 4 5 5 4 5 6 6 6 6 6 7 7 8 8
7 7 8 8 7 7 7 5 5 5 4 6 7 8 10 12 13 14 15 13 10 8 11 12 12 10 8 6 6 5 6 6 6 5 6 6 6 7 6 7 7 8 8 7
10 9 10 9 8 6 6 4 4 5 4 5 5 8 9 11 10 12 13 11 13 14 13 13 9 8 6 5 5 5 6 6 7 7 7 7 7 7 7 7 8 9 8 8
9 8 9 8 6 6 6 5 5 5 5 5 6 5 7 9 9 9 9 10 11 19 11 9 8 9 8 7 4 5 6 6 6 6 7 7 7 8 8 8 9 8 8 8
8 9 8 7 7 7 3 5 6 6 7 5 5 7 8 8 8 10 11 12 11 15 13 10 11 11 8 5 5 5 6 7 7 7 7 7 7 8 8 9 8 8 8 8
8 7 9 6 4 4 8 8 5 6 5 5 5 5 6 7 8 7 9 13 17 15 13 12 12 12 8 4 5 6 6 6 6 6 6 8 7 7 8 8 8 8 8 9
7 7 6 7 7 7 8 7 5 5 4 5 6 7 8 6 6 9 10 10 14 14 12 17 16 13 7 6 6 6 6 6 6 7 7 7 7 8 8 8 9 9 8 9
4 3 2 4 4 4 4 3 4 1 2 5 6 6 7 7 8 9 9 11 11 13 11 11 11 9 7 7 7 7 6 6 6 7 7 8 8 8 8 9 9 9 9 9
5 5 4 4 3 4 6 5 4 4 4 5 7 7 8 9 9 9 10 10 10 10 10 10 10 11 8 8 7 7 6 6 7 7 7 7 8 8 9 9 9 9 8 8
Wind_Direction
118 133 182 216 220 209 210 230 233 279 268 291 303 303 296 297 297 309 305 306 313 309 306 308 309 316 319 323 327 330 321 318 317 318 312 304 306 289 275 251 252 242 212 202
162 210 246 266 244 224 233 245 258 269 281 286 288 303 295 291 295 299 301 311 310 285 311 311 307 306 312 312 307 310 304 300 307 306 301 301 304 287 267 262 241 225 226 219
208 129 325 273 239 204 209 220 262 274 279 286 273 295 305 311 310 307 310 312 314 308 313 309 304 302 309 309 304 298 296 298 302 303 293 288 296 297 280 263 262 246 215 212
145 154 242 88 29 215 235 256 253 261 281 306 322 318 306 298 299 300 308 307 307 305 304 302 299 287 291 289 287 285 289 301 302 297 292 290 296 294 291 272 257 255 229 212
173 206 325 271 188 157 264 287 285 287 322 324 322 315 295 301 303 298 300 298 296 294 294 295 294 293 291 284 281 274 277 282 289 292 283 282 283 296 307 278 257 243 230 208
149 177 239 170 197 153 148 274 79 350 321 318 318 306 293 314 310 305 302 298 301 299 296 291 286 293 294 286 287 277 278 280 288 284 280 280 280 288 295 290 267 240 228 196
170 212 273 258 145 171 222 327 320 335 323 316 307 293 299 304 299 297 296 297 297 292 287 288 289 289 285 286 284 283 284 288 286 277 261 267 279 268 268 252 225 201 183 174
130 193 249 186 161 258 324 315 317 318 314 305 301 301 299 297 299 304 302 299 294 287 287 288 287 284 281 283 281 276 255 249 250 243 237 252 259 264 256 237 195 177 165 163
200 207 202 199 277 285 298 311 306 312 316 307 304 305 307 305 302 301 301 301 299 293 291 288 283 278 282 284 286 261 253 253 240 237 228 251 268 267 252 210 200 177 178 172
173 206 239 249 269 287 273 301 311 307 314 310 306 308 309 309 306 304 303 303 299 296 291 292 290 284 278 279 273 243 247 256 239 236 227 231 248 251 257 210 196 183 181 170
247 265 266 262 233 296 306 308 313 318 312 311 311 310 312 307 308 306 303 298 294 292 286 288 290 277 286 286 277 254 238 239 227 226 232 235 238 260 244 233 215 193 189 178
226 217 224 268 298 307 305 319 321 319 320 321 319 315 315 308 309 312 307 303 300 294 286 285 286 289 286 293 276 246 251 231 235 236 214 221 233 240 359 278 219 199 190 179
221 173 208 274 290 269 324 330 327 324 320 321 321 319 318 311 309 310 309 304 299 295 295 288 285 289 304 303 264 231 228 221 239 236 225 221 198 192 149 66 75 155 163 159
219 196 254 210 235 323 331 331 327 322 321 324 323 324 320 316 315 313 315 307 306 299 292 284 284 287 284 282 239 208 210 222 234 231 222 194 156 157 146 129 114 110 119 133
222 201 195 208 305 322 315 314 330 331 333 332 331 328 329 324 321 316 313 314 315 307 298 299 306 312 294 264 193 162 175 208 202 207 168 133 134 126 117 118 119 119 120 120
168 184 184 209 279 285 302 318 327 335 331 327 328 331 329 323 319 319 319 324 323 327 325 324 326 332 332 62 116 151 186 156 171 173 143 133 133 121 119 122 122 122 124 127
157 218 208 243 249 298 306 309 316 317 319 325 331 330 330 330 326 328 329 330 325 308 308 311 316 315 285 235 204 196 191 165 165 163 148 147 145 133 129 123 119 121 120 125
193 174 187 214 234 274 292 307 318 313 322 326 329 330 331 335 333 329 330 328 324 324 319 330 313 305 278 247 221 207 184 169 183 178 157 156 150 142 138 137 134 132 125 103
191 196 215 219 221 236 257 272 290 305 308 334 334 333 327 323 322 324 327 330 329 335 342 329 321 311 292 257 218 190 188 182 181 173 166 152 153 145 139 142 145 140 139 139
197 212 223 224 221 225 245 260 283 294 301 332 321 312 314 321 324 326 327 327 324 315 318 321 321 312 303 268 210 198 192 186 184 175 170 169 167 159 152 153 153 158 156 152
216 221 227 224 225 222 228 236 247 269 277 273 279 294 302 308 314 321 330 329 335 331 320 315 316 314 306 282 221 205 192 187 186 182 176 175 165 163 163 165 162 164 165 166
222 217 224 219 215 238 238 231 233 254 259 271 275 286 301 307 319 319 310 310 325 326 320 316 309 310 305 287 241 209 194 189 189 184 180 175 174 169 168 168 170 166 168 168
227 221 224 212 215 231 246 232 234 229 246 256 275 296 309 308 314 323 320 331 320 321 319 316 305 303 299 286 252 221 202 192 190 190 184 178 177 173 169 172 169 165 163 164
251 220 223 222 191 217 248 250 227 231 224 258 250 254 292 312 310 309 309 310 313 318 312 313 307 293 281 271 258 234 217 205 195 189 182 174 169 165 169 168 169 167 165 166
260 262 236 222 225 240 241 252 247 234 257 277 296 301 299 303 291 308 310 308 308 314 314 315 312 295 269 255 246 237 225 211 202 190 180 175 171 174 175 172 172 170 168 172
358 340 308 292 296 287 272 237 246 243 328 307 305 304 308 310 310 309 307 303 306 310 311 311 310 301 277 253 238 230 225 216 200 197 188 181 175 176 174 172 168 169 170 171
300 298 306 305 6 34 33 30 8 338 316 303 296 302 309 308 309 306 305 307 309 307 309 309 312 313 288 263 241 229 221 216 207 193 185 179 179 177 174 173 171 171 170 168